Wind_Speed
6 5 13 12 10 9 13 10 14 3 1 3 6 3 5 8 14 19 28 32 33 33 30 27 26 26 25 24 24 24 23 24 24 23 22 20 18 16 15 15 15 15 13 13
5 8 11 11 6 9 14 14 3 2 2 2 2 7 4 7 9 24 27 31 34 33 31 28 27 27 27 26 26 27 28 27 26 24 23 21 21 23 21 17 16 14 11 10
11 7 10 10 6 8 14 20 11 5 3 4 2 6 5 6 10 13 21 27 31 34 32 31 29 27 27 30 30 30 31 31 30 29 28 28 25 21 17 16 15 12 10 8
4 4 16 11 6 2 6 6 13 10 5 6 2 9 5 6 7 7 24 27 32 32 32 30 30 30 30 30 30 32 32 32 32 32 32 29 24 14 18 14 15 11 10 8
2 5 15 17 11 5 1 4 13 5 6 2 4 1 6 2 7 9 21 34 33 31 30 30 30 28 28 29 33 35 34 34 33 32 31 29 24 18 18 16 14 12 11 9
3 3 2 2 3 5 6 8 9 6 5 6 9 8 6 6 7 6 16 34 34 32 30 29 28 28 28 27 28 31 34 33 32 31 30 28 23 20 19 17 15 13 11 9
2 3 3 0 11 5 3 11 3 1 4 8 2 4 7 5 7 6 9 25 27 29 31 31 32 33 31 28 26 27 29 30 30 30 28 25 21 21 17 15 14 13 11 10
4 2 3 1 5 10 5 3 5 8 7 5 2 7 6 7 7 10 9 10 15 19 20 24 27 27 26 25 24 25 27 28 28 27 26 23 21 19 17 16 15 14 13 12
5 3 1 1 1 2 7 5 2 6 2 3 4 4 9 6 9 11 13 13 12 13 16 18 20 22 24 24 25 25 27 27 26 24 23 21 19 19 18 18 17 16 15 14
4 5 1 2 3 4 3 4 2 1 4 3 3 3 5 5 9 7 8 16 13 14 15 16 19 23 24 24 24 25 26 25 24 22 21 19 18 19 19 18 17 17 17 16
5 3 4 6 5 6 3 4 1 0 3 4 4 5 7 7 6 8 7 14 15 16 15 13 16 19 23 24 26 26 26 24 23 21 20 19 19 20 19 19 19 18 18 15
1 4 4 2 3 2 2 5 6 5 5 1 2 5 1 2 3 5 7 16 17 17 17 16 15 16 20 24 26 25 23 22 21 19 19 19 19 20 19 19 19 20 17 15
3 2 5 4 2 1 5 5 6 3 1 7 4 5 3 1 4 6 9 10 15 17 17 17 17 17 19 21 23 22 21 19 20 20 19 19 20 20 20 20 21 20 17 15
5 3 3 4 0 7 8 6 13 9 3 4 11 3 4 4 4 3 6 11 15 17 18 18 17 17 18 20 19 20 19 20 20 20 20 19 21 21 21 22 21 18 16 15
3 3 2 3 3 3 9 12 16 21 18 15 13 11 7 5 6 8 7 11 14 17 17 17 17 18 19 20 19 19 20 21 20 21 21 21 21 20 22 23 21 19 16 15
1 2 3 4 4 1 3 9 14 15 10 8 5 5 7 8 5 7 9 12 13 14 16 17 17 18 19 18 18 18 18 18 21 21 21 22 22 23 25 24 21 17 16 16
4 4 2 2 4 2 6 8 11 7 6 5 15 7 6 5 8 18 20 13 15 15 14 17 18 17 16 18 17 17 16 18 21 21 22 23 24 26 25 23 20 19 17 17
5 4 2 2 2 3 4 1 4 13 9 13 12 5 8 15 29 28 21 11 15 14 19 17 14 15 15 15 17 17 18 18 19 20 21 24 26 26 25 23 21 19 17 18
3 4 2 4 3 5 4 2 5 7 8 13 10 14 18 22 19 21 27 32 31 25 18 16 9 14 13 15 18 19 18 18 20 22 24 25 25 26 26 24 20 16 17 19
2 3 2 2 4 6 5 2 4 3 4 6 6 10 7 4 8 11 22 24 27 26 21 23 19 15 17 15 18 19 19 19 21 21 22 23 25 26 25 22 18 17 19 18
3 1 4 4 3 6 3 5 3 4 3 14 8 7 3 5 8 9 7 8 14 19 22 24 25 22 24 22 21 20 19 19 17 18 19 21 24 25 23 21 19 20 21 22
4 3 1 1 2 6 3 2 1 2 6 6 9 10 10 11 13 14 15 9 7 9 12 17 21 21 19 20 19 18 15 11 14 16 17 18 20 20 21 20 21 23 25 26
2 3 5 6 4 5 4 2 3 4 9 9 13 15 14 12 7 5 6 11 12 9 10 7 15 20 16 19 19 16 13 13 15 14 14 15 16 17 18 20 22 24 25 28
3 1 2 1 5 6 10 3 6 9 11 12 11 10 11 12 7 2 2 3 4 6 9 10 12 16 20 20 18 15 11 11 12 12 11 11 12 13 15 18 19 20 22 24
4 3 3 4 4 2 11 20 14 7 12 13 13 9 8 7 3 1 5 6 8 10 12 14 15 18 20 18 15 13 13 12 11 9 8 9 10 11 12 14 16 19 21 23
8 7 5 5 9 6 6 4 11 10 5 10 14 15 10 4 2 2 7 12 11 14 16 18 19 17 17 16 14 13 11 9 8 7 7 8 10 13 16 18 19 21 23 23
Wind_Direction
152 140 187 182 197 145 144 140 188 177 324 190 198 214 198 193 201 210 212 209 210 215 215 214 215 219 217 215 216 219 219 219 221 220 223 230 240 252 254 263 267 279 285 298
127 182 171 144 150 166 149 164 126 9 18 135 151 241 226 200 216 216 216 215 217 218 221 220 219 221 222 223 221 221 223 226 228 229 234 238 245 246 251 253 263 269 278 292
175 145 159 153 151 169 184 184 165 163 131 63 139 272 193 231 229 226 225 227 225 222 222 223 222 223 225 226 225 225 228 230 232 234 233 234 242 248 262 254 261 261 270 271
106 149 171 151 156 111 180 171 153 128 123 217 324 244 232 206 215 219 226 225 228 226 225 227 228 229 231 232 230 230 231 233 234 237 236 240 246 247 255 248 252 249 251 248
92 155 153 164 190 123 43 117 169 117 95 36 312 234 261 126 218 228 230 225 228 227 225 227 228 232 234 234 232 230 230 231 233 232 235 235 234 250 252 245 241 238 239 231
34 325 121 114 105 108 148 94 64 53 113 229 202 186 247 196 199 213 226 227 225 228 227 228 230 230 232 232 231 228 226 226 225 224 226 231 237 252 242 240 237 235 229 221
95 9 351 70 106 57 107 148 104 165 185 216 246 178 239 248 230 212 207 220 225 229 230 230 231 230 228 227 224 219 218 216 215 218 222 230 240 242 236 236 235 230 223 212
138 150 201 197 160 174 152 178 163 182 196 175 101 223 237 215 249 228 211 204 212 215 220 225 226 223 220 215 212 209 208 210 213 218 222 230 233 232 228 226 223 218 211 205
139 70 119 290 142 217 161 196 140 102 1 85 196 278 301 230 252 236 225 218 219 214 217 217 211 208 206 206 206 207 208 210 218 221 224 227 229 226 224 221 214 209 205 206
151 113 78 74 74 34 67 125 137 329 129 212 280 264 227 232 226 199 221 223 212 206 206 206 204 203 202 203 205 207 210 216 221 226 228 228 227 223 217 214 214 207 205 208
131 107 138 129 211 185 123 155 92 294 154 174 156 247 218 209 220 215 201 219 214 206 199 195 198 201 204 205 209 212 215 219 223 226 225 224 222 216 212 211 207 205 208 211
90 106 130 126 334 141 74 166 175 178 203 87 141 284 122 215 296 266 237 208 203 199 195 192 197 204 206 210 214 216 218 221 222 222 223 221 215 212 211 210 207 207 210 214
151 125 114 124 346 45 198 210 182 91 59 194 165 242 344 290 286 266 253 212 194 197 198 200 201 207 212 216 216 216 217 219 221 222 222 218 212 209 209 208 208 210 214 220
81 136 181 179 217 132 181 181 193 182 191 140 225 173 260 242 247 261 204 192 194 206 211 212 214 214 213 215 216 217 218 221 223 223 219 211 210 207 208 208 209 213 220 226
129 117 346 34 27 84 166 180 183 198 208 207 231 200 232 180 192 207 187 194 207 210 216 217 215 213 214 216 217 218 218 219 219 215 209 206 207 207 208 210 212 217 226 230
256 129 123 359 349 306 241 213 206 215 230 260 140 220 247 267 190 186 201 198 205 212 216 218 217 215 218 219 219 217 213 209 209 205 205 207 207 208 209 211 216 224 234 241
143 138 102 230 348 337 297 219 209 224 215 179 239 197 178 231 237 244 236 221 223 223 222 222 221 221 225 225 218 218 210 207 209 207 207 209 210 210 211 215 224 231 236 245
152 117 94 127 54 231 249 241 213 219 239 232 256 198 210 228 243 251 257 246 243 247 235 226 226 227 226 221 218 213 209 212 215 215 214 215 215 214 215 220 230 237 246 254
14 132 113 155 201 297 293 206 150 166 262 234 233 243 241 249 263 269 259 259 261 258 264 239 237 238 229 221 217 214 210 213 220 221 221 221 220 218 222 227 236 248 256 258
22 165 111 146 157 206 238 332 227 178 300 357 261 260 257 184 250 261 267 263 260 255 242 229 253 231 209 221 220 214 215 219 227 227 225 223 223 223 226 236 244 251 255 262
95 81 197 179 206 280 260 288 142 118 246 327 344 340 307 195 233 268 300 260 241 239 236 235 236 231 233 234 223 213 215 223 232 231 227 223 223 224 229 238 244 253 259 261
150 149 265 163 153 249 5 100 80 249 323 326 359 354 327 302 297 274 268 256 225 234 234 235 231 229 225 215 203 202 209 222 225 225 228 226 225 227 234 242 247 253 260 267
261 191 171 195 215 203 340 349 351 328 293 298 327 339 335 334 332 298 264 249 254 223 202 197 205 200 195 183 180 184 184 201 207 209 208 212 217 223 234 244 254 261 267 271
271 232 178 114 224 225 173 245 307 327 346 335 310 327 339 333 319 277 225 185 192 185 181 175 165 174 170 163 166 168 174 190 191 191 186 200 218 231 242 251 258 264 267 271
199 138 196 265 285 266 226 235 244 251 298 344 338 326 338 338 344 101 138 141 137 131 147 149 151 153 154 151 154 161 173 176 179 191 201 217 228 239 249 257 266 271 272 275
191 183 183 215 229 186 226 226 216 223 265 305 309 320 325 323 249 134 142 137 140 137 137 139 142 148 146 145 151 154 161 166 178 191 217 238 253 263 269 272 274 277 279 279
Height
1468 1474 1477 1479 1479 1480 1494 1503 1508 1511 1512 1511 1514 1512 1512 1515 1516 1518 1520 1522 1524 1527 1532 1536 1540 1545 1549 1552 1556 1560 1562 1565 1568 1571 1573 1575 1577 1578 1579 1580 1581 1582 1582 1582
1467 1469 1472 1478 1484 1487 1492 1499 1510 1513 1512 1512 1514 1514 1513 1514 1512 1513 1515 1518 1519 1523 1528 1533 1536 1540 1544 1548 1551 1554 1557 1560 1563 1566 1569 1572 1573 1574 1576 1577 1579 1579 1580 1580
1455 1465 1472 1476 1485 1489 1489 1492 1505 1508 1513 1515 1516 1514 1513 1511 1511 1512 1513 1514 1516 1517 1522 1527 1531 1534 1539 1541 1544 1548 1551 1555 1558 1561 1564 1565 1568 1570 1573 1574 1575 1576 1577 1577
1463 1468 1473 1476 1483 1487 1492 1489 1497 1508 1508 1518 1522 1513 1510 1508 1507 1507 1506 1508 1508 1512 1516 1521 1525 1528 1532 1536 1539 1542 1546 1549 1553 1555 1558 1560 1563 1566 1568 1570 1571 1573 1574 1574
1474 1475 1476 1477 1477 1487 1492 1489 1492 1509 1524 1530 1524 1523 1505 1506 1507 1503 1499 1500 1502 1507 1510 1514 1518 1522 1526 1529 1532 1536 1539 1543 1547 1551 1554 1557 1560 1563 1565 1567 1568 1569 1570 1571
1475 1476 1475 1476 1483 1485 1494 1495 1505 1516 1531 1540 1518 1519 1506 1502 1493 1491 1491 1493 1495 1500 1504 1508 1512 1515 1518 1522 1525 1528 1532 1536 1541 1546 1549 1552 1556 1558 1561 1563 1565 1567 1568 1569
1478 1480 1478 1478 1481 1490 1495 1492 1522 1528 1532 1512 1526 1521 1496 1487 1484 1482 1483 1486 1489 1494 1497 1500 1503 1506 1511 1515 1518 1522 1527 1531 1536 1542 1545 1549 1552 1555 1557 1560 1563 1564 1566 1567
1470 1480 1480 1479 1479 1484 1495 1499 1501 1510 1505 1514 1523 1507 1487 1478 1478 1480 1482 1483 1486 1488 1490 1493 1496 1501 1506 1511 1514 1519 1523 1528 1534 1538 1542 1545 1548 1550 1553 1555 1558 1560 1563 1564
1465 1476 1481 1480 1483 1484 1491 1496 1495 1508 1536 1513 1506 1497 1478 1476 1476 1476 1477 1479 1481 1484 1487 1490 1493 1498 1503 1507 1512 1516 1521 1525 1530 1534 1538 1541 1544 1546 1549 1552 1554 1557 1559 1561
1457 1474 1481 1483 1484 1488 1483 1489 1495 1499 1512 1508 1502 1498 1483 1473 1469 1471 1473 1474 1477 1481 1485 1487 1491 1496 1500 1506 1511 1514 1518 1523 1526 1530 1534 1537 1540 1543 1544 1548 1551 1553 1555 1557
1453 1459 1482 1484 1486 1482 1490 1493 1496 1497 1503 1497 1504 1489 1470 1462 1462 1464 1469 1473 1476 1480 1483 1487 1491 1494 1499 1504 1507 1511 1514 1519 1523 1527 1530 1533 1536 1540 1542 1545 1548 1551 1553 1555
1454 1463 1474 1479 1480 1480 1482 1484 1486 1487 1497 1511 1506 1480 1464 1464 1465 1465 1466 1468 1473 1478 1482 1484 1488 1493 1497 1501 1504 1507 1512 1515 1519 1523 1526 1529 1533 1537 1540 1544 1547 1549 1551 1554
1454 1465 1475 1481 1485 1483 1486 1486 1480 1486 1486 1491 1489 1477 1465 1465 1466 1468 1466 1468 1471 1477 1480 1482 1484 1489 1494 1498 1502 1504 1508 1512 1516 1519 1522 1526 1530 1533 1538 1541 1543 1546 1548 1552
1455 1464 1459 1458 1456 1463 1476 1479 1478 1479 1489 1485 1466 1472 1469 1465 1466 1466 1466 1467 1469 1474 1478 1479 1481 1485 1490 1496 1499 1502 1505 1508 1512 1515 1519 1523 1527 1529 1535 1538 1541 1543 1546 1549
1458 1462 1461 1464 1461 1461 1462 1467 1469 1465 1460 1466 1455 1470 1465 1463 1466 1464 1463 1465 1468 1470 1473 1476 1478 1481 1486 1490 1494 1497 1500 1503 1507 1510 1515 1518 1523 1528 1532 1536 1539 1540 1543 1544
1457 1464 1461 1472 1465 1462 1461 1463 1463 1463 1463 1466 1469 1469 1466 1460 1461 1462 1462 1461 1463 1466 1468 1471 1475 1478 1482 1486 1489 1492 1496 1499 1502 1506 1511 1516 1521 1523 1528 1531 1534 1537 1540 1542
1459 1464 1468 1470 1474 1468 1469 1462 1460 1458 1456 1454 1454 1458 1460 1458 1457 1455 1455 1458 1460 1462 1465 1468 1472 1476 1479 1481 1485 1488 1493 1497 1499 1503 1507 1512 1515 1518 1523 1527 1532 1532 1532 1537
1459 1464 1467 1473 1482 1478 1450 1449 1449 1449 1447 1446 1443 1446 1448 1447 1448 1448 1450 1452 1455 1458 1462 1465 1468 1471 1474 1478 1481 1486 1489 1493 1496 1500 1504 1509 1512 1517 1519 1522 1525 1529 1529 1532
1455 1459 1471 1471 1493 1463 1444 1448 1451 1453 1450 1444 1444 1441 1441 1442 1443 1442 1447 1448 1450 1455 1460 1462 1465 1467 1470 1473 1476 1481 1484 1487 1491 1494 1500 1505 1508 1511 1518 1517 1520 1524 1526 1526
1456 1457 1460 1479 1476 1475 1448 1444 1445 1449 1456 1445 1441 1438 1440 1444 1447 1440 1441 1443 1446 1449 1453 1457 1458 1462 1466 1469 1471 1475 1479 1482 1486 1489 1494 1499 1502 1507 1512 1514 1516 1517 1519 1519
1454 1456 1455 1461 1466 1462 1449 1447 1448 1458 1454 1446 1444 1441 1438 1441 1440 1439 1438 1439 1440 1442 1444 1448 1451 1455 1460 1463 1467 1470 1475 1477 1482 1487 1490 1492 1497 1501 1505 1508 1509 1513 1514 1511
1453 1459 1457 1461 1459 1454 1447 1446 1447 1450 1446 1445 1442 1441 1438 1437 1436 1435 1437 1437 1436 1437 1439 1441 1444 1449 1453 1458 1462 1469 1472 1477 1482 1485 1489 1490 1495 1497 1501 1503 1504 1505 1505 1505
1453 1448 1451 1458 1450 1446 1447 1445 1445 1446 1446 1445 1442 1439 1436 1434 1433 1434 1433 1434 1436 1436 1437 1437 1440 1445 1450 1455 1460 1467 1467 1471 1478 1479 1478 1485 1490 1492 1494 1496 1498 1499 1499 1498
1450 1448 1449 1448 1440 1441 1441 1445 1444 1445 1443 1441 1438 1436 1434 1433 1433 1432 1432 1432 1434 1435 1435 1438 1439 1444 1450 1454 1460 1464 1466 1473 1475 1477 1474 1480 1486 1488 1489 1490 1490 1492 1492 1491
1448 1448 1448 1445 1441 1442 1442 1440 1440 1439 1441 1440 1439 1435 1435 1433 1431 1431 1430 1432 1436 1435 1437 1440 1443 1446 1451 1455 1459 1462 1468 1470 1471 1475 1474 1478 1480 1482 1484 1484 1484 1486 1486 1485
1440 1440 1443 1442 1433 1434 1435 1434 1434 1435 1436 1435 1436 1436 1435 1433 1434 1433 1433 1434 1439 1440 1442 1443 1444 1450 1452 1456 1459 1463 1468 1470 1471 1471 1474 1475 1477 1479 1480 1479 1476 1478 1479 1478